User: anonymous   Login
Location: LewisvilleTX
(33.0462°N, 96.9942°W)
Time: 12:17:19
(UTC+00:00)
Language:

Hubble Space Telescope - Orbit

View from above orbital plane
View from above orbital plane
View from above satellite
View from above satellite

Ground track
Ground track

The orbit data is extracted from the following two-line orbital elements,

1 20580U 90037B   20296.83533876 +.00000620 +00000-0 +26746-4 0  9993
2 20580 028.4691 197.1137 0002713 027.8992 043.4761 15.09455100475221
Epoch (UTC): 22 October 2020 20:02:53
Eccentricity: 0.0002713
inclination: 28.4691°
perigee height: 536 km
apogee height: 540 km
right ascension of ascending node: 197.1137°
argument of perigee: 27.8992°
revolutions per day: 15.09455100
mean anomaly at epoch: 43.4761°
orbit number at epoch: 47522

The dashed part of the orbit path shows where the satellite is in the earth's shadow,  

DLR